Regional Weather Roundup
Issued by NWS

Home | Current Version | Previous Version | Graphics & Text | Print | Product List | Glossary On
Versions: 1 2 3 4 5 6 7 8 9 10 11 12 13 14 15 16 17 18 19 20 21 22 23 24 25 26 27 28 29 30 31 32 33 34 35 36 37 38 39 40 41 42 43 44 45 46 47 48 49 50
000
ASUS43 KLMK 040110
RWRKY
KENTUCKY REGIONAL WEATHER ROUNDUP
NATIONAL WEATHER SERVICE LOUISVILLE KY
800 PM EST SAT DEC 03 2016

NOTE "FAIR" INDICATES FEW OR NO CLOUDS BELOW 12,000 FEET
WITH NO SIGNIFICANT WEATHER AND/OR OBSTRUCTIONS TO VISIBILITY.

KYZ001>023-026-027-061>063-070>075-040200-
WESTERN AND SOUTH CENTRAL KENTUCKY

CITY           SKY/WX    TMP DP  RH WIND       PRES   REMARKS
PADUCAH        CLOUDY    43  30  60 E5        30.27F
HENDERSON      CLOUDY    43  28  56 E9        30.30S
OWENSBORO      CLOUDY    42  31  64 CALM      30.31S
HOPKINSVILLE   CLOUDY    41  33  73 NE6       30.28R
BOWLING GREEN  CLOUDY    42  33  70 CALM      30.30R
GLASGOW        CLOUDY    40  33  74 NE3       30.29S
$$

KYZ024-025-028>034-038-045-046-053-040200-
NORTH CENTRAL KENTUCKY

CITY           SKY/WX    TMP DP  RH WIND       PRES   REMARKS
LOUISVILLE/SDF CLOUDY    42  27  55 E5        30.31R
LOUISVILLE/LOU CLOUDY    42  28  57 E3        30.32R
FORT KNOX      CLOUDY    39  29  66 CALM      30.28S
$$

KYZ035>037-039>044-047>052-055>060-089>105-040200-
NORTHEAST KENTUCKY

CITY           SKY/WX    TMP DP  RH WIND       PRES   REMARKS
LEXINGTON      CLOUDY    39  29  67 E5        30.30R
COVINGTON      CLOUDY    36  29  75 N7        30.30S WCI  30
FRANKFORT      CLOUDY    40  28  62 NE3       30.29S
$$

KYZ054-064>069-076>088-106>120-040200-
SOUTHEAST KENTUCKY

CITY           SKY/WX    TMP DP  RH WIND       PRES   REMARKS
JACKSON        CLOUDY    38  29  70 NE3       30.28R
LONDON         CLOUDY    39  28  64 NE5       30.27S
SOMERSET       PTCLDY    37  32  81 NE5       30.30S WCI  34
MIDDLESBORO    CLOUDY    40  32  74 CALM      30.27F
MONTICELLO     CLOUDY    39  32  76 NE13      30.30R WCI  31
$$





USA.gov is the U.S. government's official web portal to all federal, state and local government web resources and services.